DB5ZQ Weather Reports


time (UTC)temp
C
wind
direction
speed
KPH
gust
KPH
rain 1hr
cm
rain 24hr
cm
rain mn
cm
humidity
%
barometer
mb
20260505081236 19 212 0.0 0.0 0.00 0.00 0.00 62 1005.3
20260505080736 20 212 0.0 8.0 0.00 0.00 0.00 63 1005.2
20260505080235 19 206 1.6 1.6 0.00 0.00 0.00 63 1005.2
20260505075735 19 217 0.0 1.6 0.00 0.00 0.00 64 1005.3
20260505075235 19 260 0.0 3.2 0.00 0.00 0.00 65 1005.3
20260505074735 18 258 1.6 4.8 0.00 0.00 0.00 65 1005.4
20260505074234 18 247 0.0 6.4 0.00 0.00 0.00 66 1005.5
20260505073734 18 225 0.0 1.6 0.00 0.00 0.00 66 1005.5
20260505073234 18 126 0.0 6.4 0.00 0.00 0.00 66 1005.5
20260505072733 18 241 0.0 0.0 0.00 0.00 0.00 67 1005.6
20260505072233 18 241 0.0 3.2 0.00 0.00 0.00 67 1005.6
20260505071733 18 281 0.0 4.8 0.00 0.00 0.00 67 1005.7
20260505071233 18 241 0.0 0.0 0.00 0.00 0.00 68 1005.8
20260505070732 18 264 0.0 3.2 0.00 0.00 0.00 68 1005.8
20260505070232 18 257 0.0 0.0 0.00 0.00 0.00 69 1005.8
20260505065732 18 253 0.0 1.6 0.00 0.00 0.00 69 1005.8
20260505065231 17 236 0.0 1.6 0.00 0.00 0.00 69 1005.7
20260505064731 18 240 0.0 3.2 0.00 0.00 0.00 70 1005.7
20260505064231 17 195 0.0 0.0 0.00 0.00 0.00 70 1005.7
20260505063731 17 195 0.0 0.0 0.00 0.00 0.00 71 1005.7
20260505063230 17 195 0.0 4.8 0.00 0.00 0.00 71 1005.6
20260505062730 17 254 3.2 3.2 0.00 0.00 0.00 71 1005.6
20260505062230 17 219 0.0 0.0 0.00 0.00 0.00 71 1005.6
20260505061729 17 219 0.0 0.0 0.00 0.00 0.00 71 1005.6
20260505061229 17 219 0.0 0.0 0.00 0.00 0.00 71 1005.7
20260505060729 17 219 0.0 0.0 0.00 0.00 0.00 72 1005.7
20260505060229 17 219 0.0 0.0 0.00 0.00 0.00 72 1005.7
20260505055728 17 265 0.0 0.0 0.00 0.00 0.00 72 1005.7
20260505055228 17 244 0.0 0.0 0.00 0.00 0.00 73 1005.7
20260505054728 17 244 0.0 0.0 0.00 0.00 0.00 73 1005.7
20260505054227 17 244 0.0 1.6 0.00 0.00 0.00 73 1005.7
20260505053727 17 225 0.0 0.0 0.00 0.00 0.00 73 1005.7
20260505053227 17 225 0.0 0.0 0.00 0.00 0.00 73 1005.6
20260505052727 16 225 0.0 1.6 0.00 0.00 0.00 73 1005.7
20260505052226 17 251 0.0 0.0 0.00 0.00 0.00 73 1005.6
20260505051726 16 233 0.0 0.0 0.00 0.00 0.00 73 1005.6
20260505051226 17 233 0.0 0.0 0.00 0.00 0.00 74 1005.6
20260505050726 16 233 0.0 0.0 0.00 0.00 0.00 74 1005.6
20260505050225 16 233 0.0 0.0 0.00 0.00 0.00 74 1005.7
20260505041723 16 233 0.0 0.0 0.00 0.00 0.00 73 1005.8
20260505041222 16 233 0.0 0.0 0.00 0.00 0.00 73 1005.7
20260505040722 16 233 0.0 0.0 0.00 0.00 0.00 73 1005.8
20260505040222 16 233 0.0 0.0 0.00 0.00 0.00 73 1005.8
20260505035722 16 233 0.0 0.0 0.00 0.00 0.00 72 1005.8
20260505035221 16 233 0.0 0.0 0.00 0.00 0.00 72 1005.8
20260505034721 17 233 0.0 0.0 0.00 0.00 0.00 72 1005.9
20260505034221 16 233 0.0 0.0 0.00 0.00 0.00 72 1005.8
20260505033720 16 233 0.0 0.0 0.00 0.00 0.00 72 1005.9
20260505033220 16 233 0.0 0.0 0.00 0.00 0.00 72 1005.9
20260505032720 16 233 0.0 0.0 0.00 0.00 0.00 72 1006.0
20260505032220 17 233 0.0 0.0 0.00 0.00 0.00 72 1006.0
20260505031719 16 233 0.0 0.0 0.00 0.00 0.00 72 1006.1
20260505031219 17 233 0.0 0.0 0.00 0.00 0.00 72 1006.2
20260505030719 17 233 0.0 0.0 0.00 0.00 0.00 72 1006.2
20260505030218 17 233 0.0 0.0 0.00 0.00 0.00 72 1006.3
20260505025718 17 233 0.0 0.0 0.00 0.00 0.00 72 1006.4
20260505025218 16 233 0.0 0.0 0.00 0.00 0.00 72 1006.4
20260505024718 16 233 0.0 0.0 0.00 0.00 0.00 72 1006.4
20260505024217 17 233 0.0 0.0 0.00 0.00 0.00 72 1006.4
20260505023717 17 233 0.0 0.0 0.00 0.00 0.00 72 1006.5
20260505023217 17 233 0.0 0.0 0.00 0.00 0.00 72 1006.5
20260505022716 17 233 0.0 0.0 0.00 0.00 0.00 72 1006.6
20260505022216 17 233 0.0 0.0 0.00 0.00 0.00 72 1006.6
20260505021716 17 233 0.0 0.0 0.00 0.00 0.00 71 1006.8
20260505021216 17 233 0.0 0.0 0.00 0.00 0.00 71 1006.8
20260505020715 17 233 0.0 0.0 0.00 0.00 0.00 71 1006.9
20260505020215 17 233 0.0 0.0 0.00 0.00 0.00 71 1007.0
20260505015715 17 233 0.0 0.0 0.00 0.00 0.00 71 1007.0
20260505015214 17 233 0.0 0.0 0.00 0.00 0.00 71 1007.0
20260505014714 17 233 0.0 0.0 0.00 0.00 0.00 70 1007.0
20260505014214 17 233 0.0 0.0 0.00 0.00 0.00 70 1007.1
20260505013714 17 233 0.0 0.0 0.00 0.00 0.00 70 1007.1
20260505013213 17 233 0.0 0.0 0.00 0.00 0.00 70 1007.1
20260505012713 17 233 0.0 0.0 0.00 0.00 0.00 69 1007.1
20260505012213 17 233 0.0 0.0 0.00 0.00 0.00 69 1007.2
20260505011712 17 233 0.0 0.0 0.00 0.00 0.00 69 1007.2
20260505011212 17 233 0.0 1.6 0.00 0.00 0.00 68 1007.1
20260505010712 17 270 0.0 0.0 0.00 0.00 0.00 68 1007.1
20260505010212 17 267 0.0 0.0 0.00 0.00 0.00 68 1007.0
20260505005711 17 267 0.0 1.6 0.00 0.00 0.00 68 1007.0
20260505005211 17 132 0.0 0.0 0.00 0.00 0.00 68 1007.0
20260505004711 17 132 0.0 0.0 0.00 0.00 0.00 68 1007.1
20260505004211 17 132 0.0 0.0 0.00 0.00 0.00 68 1007.2
20260505003710 17 132 0.0 0.0 0.00 0.00 0.00 68 1007.2
20260505003210 17 132 0.0 1.6 0.00 0.00 0.00 68 1007.3
20260505002710 17 312 0.0 0.0 0.00 0.00 0.00 69 1007.5
20260505002209 17 312 0.0 0.0 0.00 0.00 0.00 69 1007.4
20260505001709 17 312 0.0 0.0 0.00 0.00 0.00 69 1007.5
20260505001209 17 90 0.0 0.0 0.00 0.00 0.00 69 1007.6
20260505000709 17 90 0.0 0.0 0.00 0.00 0.00 69 1007.7
20260505000208 17 90 0.0 0.0 0.00 0.00 0.00 69 1007.7
20260504235708 17 90 0.0 1.6 0.00 0.00 0.00 69 1007.8
20260504235208 17 150 0.0 3.2 0.00 0.00 0.00 69 1007.8
20260504234707 17 267 0.0 0.0 0.00 0.00 0.00 69 1007.9
20260504234207 17 267 0.0 0.0 0.00 0.00 0.00 69 1007.9
20260504233707 17 267 0.0 0.0 0.00 0.00 0.00 69 1008.0
20260504233207 17 267 0.0 0.0 0.00 0.00 0.00 69 1008.1
20260504232706 17 267 0.0 0.0 0.00 0.00 0.00 69 1008.0
20260504232206 17 267 0.0 0.0 0.00 0.00 0.00 69 1008.0
20260504231706 17 267 0.0 0.0 0.00 0.00 0.00 68 1008.0
20260504231205 17 267 0.0 0.0 0.00 0.00 0.00 68 1008.1
20260504230705 17 267 0.0 0.0 0.00 0.00 0.00 68 1008.1
20260504230205 17 267 0.0 1.6 0.00 0.00 0.00 68 1008.2
20260504225705 18 253 0.0 0.0 0.00 0.00 0.00 68 1008.2
20260504225204 18 253 0.0 0.0 0.00 0.00 0.00 69 1008.2
20260504224704 18 253 0.0 0.0 0.00 0.00 0.00 68 1008.3
20260504224204 18 253 0.0 0.0 0.00 0.00 0.00 68 1008.3
20260504223703 18 253 0.0 0.0 0.00 0.00 0.00 67 1008.3
20260504223203 18 253 0.0 0.0 0.00 0.00 0.00 67 1008.4
20260504222703 18 262 0.0 0.0 0.00 0.00 0.00 67 1008.4
20260504222203 18 262 0.0 0.0 0.00 0.00 0.00 67 1008.5
20260504221702 18 262 0.0 0.0 0.00 0.00 0.00 66 1008.8
20260504221202 18 262 0.0 0.0 0.00 0.00 0.00 66 1008.8
20260504220702 18 262 0.0 0.0 0.00 0.00 0.00 65 1008.9
20260504220201 18 262 0.0 0.0 0.00 0.00 0.00 65 1008.9
20260504215701 18 262 0.0 0.0 0.00 0.00 0.00 65 1009.0
20260504215201 18 262 0.0 0.0 0.00 0.00 0.00 65 1009.0
20260504214701 18 262 0.0 0.0 0.00 0.00 0.00 64 1009.0
20260504214200 18 262 0.0 0.0 0.00 0.00 0.00 64 1009.0
20260504213700 18 262 0.0 0.0 0.00 0.00 0.00 63 1009.1
20260504213200 19 262 0.0 0.0 0.00 0.00 0.00 63 1009.1
20260504212659 19 262 0.0 0.0 0.00 0.00 0.00 62 1009.1
20260504212159 19 262 0.0 0.0 0.00 0.00 0.00 62 1009.1
20260504211659 19 262 0.0 0.0 0.00 0.00 0.00 61 1009.1
20260504211159 19 262 0.0 0.0 0.00 0.00 0.00 61 1009.1
20260504210658 19 262 0.0 0.0 0.00 0.00 0.00 60 1009.1
20260504210158 19 262 0.0 0.0 0.00 0.00 0.00 60 1009.1
20260504205658 19 262 0.0 0.0 0.00 0.00 0.00 59 1009.1
20260504205157 20 262 0.0 0.0 0.00 0.00 0.00 59 1009.0
20260504204657 19 262 0.0 0.0 0.00 0.00 0.00 59 1009.1
20260504204157 19 262 0.0 0.0 0.00 0.00 0.00 58 1009.0
20260504203657 19 262 0.0 0.0 0.00 0.00 0.00 58 1009.0
20260504203156 20 262 0.0 0.0 0.00 0.00 0.00 58 1009.0
20260504202656 19 262 0.0 0.0 0.00 0.00 0.00 58 1009.0
20260504202158 20 262 0.0 0.0 0.00 0.00 0.00 58 1009.0
20260504201655 20 262 0.0 0.0 0.00 0.00 0.00 57 1008.9
20260504201155 20 262 0.0 0.0 0.00 0.00 0.00 57 1008.9
20260504200655 20 262 0.0 0.0 0.00 0.00 0.00 57 1008.9
20260504200155 20 262 0.0 0.0 0.00 0.00 0.00 57 1009.0
20260504195654 20 262 0.0 0.0 0.00 0.00 0.00 57 1008.9
20260504195154 20 262 0.0 0.0 0.00 0.00 0.00 57 1008.9
20260504194654 20 262 0.0 0.0 0.00 0.00 0.00 57 1008.9
20260504194154 20 262 0.0 0.0 0.00 0.00 0.00 57 1008.8
20260504193653 20 262 0.0 0.0 0.00 0.00 0.00 57 1008.8
20260504193153 20 262 0.0 0.0 0.00 0.00 0.00 56 1008.6
20260504192653 20 262 0.0 0.0 0.00 0.00 0.00 56 1008.6
20260504192152 20 262 0.0 0.0 0.00 0.00 0.00 56 1008.4
20260504191652 20 262 0.0 0.0 0.00 0.00 0.00 56 1008.4
20260504191152 20 262 0.0 0.0 0.00 0.00 0.00 55 1008.3
20260504190651 20 262 0.0 0.0 0.00 0.00 0.00 55 1008.3
20260504190151 20 262 0.0 3.2 0.00 0.00 0.00 55 1008.4
20260504185655 20 212 0.0 0.0 0.00 0.00 0.00 55 1008.4
20260504185151 20 212 0.0 0.0 0.00 0.00 0.00 54 1008.4
20260504184650 20 212 0.0 3.2 0.00 0.00 0.00 54 1008.2
20260504184150 20 160 0.0 0.0 0.00 0.00 0.00 54 1008.3
20260504183650 20 160 0.0 0.0 0.00 0.00 0.00 54 1008.3
20260504183150 20 160 0.0 0.0 0.00 0.00 0.00 53 1008.3
20260504182649 20 160 0.0 0.0 0.00 0.00 0.00 53 1008.2
20260504182149 20 160 0.0 0.0 0.00 0.00 0.00 53 1008.3
20260504181651 20 160 0.0 0.0 0.00 0.00 0.00 53 1008.2
20260504181148 20 160 0.0 0.0 0.00 0.00 0.00 52 1008.2
20260504180648 21 160 0.0 0.0 0.00 0.00 0.00 52 1008.1
20260504180148 20 160 0.0 0.0 0.00 0.00 0.00 52 1008.1
20260504175648 21 160 0.0 0.0 0.00 0.00 0.00 51 1008.1
20260504175147 20 160 0.0 0.0 0.00 0.00 0.00 51 1008.1
20260504174647 21 160 0.0 0.0 0.00 0.00 0.00 51 1008.0
20260504174147 21 160 0.0 3.2 0.00 0.00 0.00 51 1008.0
20260504173646 21 64 0.0 3.2 0.00 0.00 0.00 51 1008.0
20260504173146 21 195 0.0 0.0 0.00 0.00 0.00 51 1008.0
20260504172646 21 195 0.0 3.2 0.00 0.00 0.00 51 1008.0
20260504172146 21 113 0.0 0.0 0.00 0.00 0.00 51 1007.9
20260504171645 21 113 0.0 0.0 0.00 0.00 0.00 50 1007.9
20260504171145 21 113 0.0 0.0 0.00 0.00 0.00 50 1008.0
20260504170645 21 113 0.0 0.0 0.00 0.00 0.00 50 1008.1
20260504170144 21 113 0.0 4.8 0.00 0.00 0.00 50 1008.0
20260504160141 22 87 1.6 3.2 0.00 0.00 0.00 50 1008.2
20260504151138 24 177 1.6 9.7 0.00 0.00 0.00 42 1008.2
20260504150638 24 64 1.6 11.3 0.00 0.00 0.00 42 1008.2
20260504150138 25 358 1.6 9.7 0.00 0.00 0.00 41 1008.2
20260504141135 23 23 0.0 8.0 0.00 0.00 0.00 44 1008.6
20260504140635 23 130 0.0 4.8 0.00 0.00 0.00 44 1008.8
20260504140134 23 26 3.2 8.0 0.00 0.00 0.00 44 1008.6
20260504130631 23 5 0.0 9.7 0.00 0.00 0.00 43 1009.0
20260504130131 23 327 0.0 8.0 0.00 0.00 0.00 43 1009.1
20260504120127 25 292 0.0 6.4 0.00 0.00 0.00 39 1009.2
20260504110624 22 87 0.0 11.3 0.00 0.00 0.00 44 1009.7
20260504110124 22 108 0.0 8.0 0.00 0.00 0.00 44 1009.8
20260504100121 21 292 0.0 3.2 0.00 0.00 0.00 46 1010.1
20260504090117 20 9 1.6 4.8 0.00 0.00 0.00 49 1010.4